Location: *
(49.8044°N, 4.0558°E)
Time: 18:30:14
(UTC+00:00)

Cosmos 2154 Rocket - Pass Details

Date: 09 April 2020
Orbit: 965 x 997 km, 82.9° (Epoch: 02 June)

Event Time Altitude Azimuth Distance (km) Brightness Sun altitude
Rises 19:22:00 0° 350° (N) 3,731 7.6 -9.0°
Reaches altitude 10° 19:24:32 10° 350° (N) 2,776 6.9 -9.4°
Maximum altitude 19:30:56 89° 74° (ENE) 1,001 4.1 -10.3°
Drops below altitude 10° 19:37:16 10° 172° (S) 2,742 6.0 -11.2°
Sets 19:39:46 0° 173° (S) 3,682 6.7 -11.6°
